GW0994 Weather Reports


time (UTC)temp
C
wind
direction
speed
KPH
gust
KPH
rain 1hr
cm
rain 24hr
cm
rain mn
cm
humidity
%
barometer
mb
20260502123050 -17 0.0 0.0 0.00 0.00 0.00 1012.0
20260502121550 -17 0.0 0.0 0.00 0.00 0.00 1011.8
20260502114632 -17 0.0 0.0 0.00 0.00 0.00 1011.5
20260502113050 -17 0.0 0.0 0.00 0.00 0.00 1011.4
20260502111549 -17 0.0 0.0 0.00 0.00 0.00 1011.4
20260502110045 19 0 0.0 0.0 0.00 0.00 0.00 36 1011.4
20260502104546 20 0 0.0 0.0 0.00 0.00 0.00 32 1011.3
20260502103044 21 0 0.0 0.0 0.00 0.00 0.00 30 1011.1
20260502101604 21 0 0.0 0.0 0.00 0.00 0.00 29 1011.1
20260502100107 21 0 0.0 0.0 0.00 0.00 0.00 29 1011.0
20260502070059 23 0 0.0 3.2 0.00 0.00 0.00 22 1010.4
20260502064611 23 331 3.2 8.0 0.00 0.00 0.00 21 1010.3
20260502063059 23 32 3.2 4.8 0.00 0.00 0.00 22 1010.3
20260502061552 23 0 0.0 1.6 0.00 0.00 0.00 25 1010.2
20260502060047 24 0 0.0 3.2 0.00 0.00 0.00 26 1010.1
20260502054542 24 0 0.0 3.2 0.00 0.00 0.00 26 1010.0
20260502053055 24 0 0.0 0.0 0.00 0.00 0.00 26 1009.9
20260502051546 24 0 0.0 0.0 0.00 0.00 0.00 26 1009.9
20260502050047 24 0 0.0 0.0 0.00 0.00 0.00 25 1009.9
20260502044547 25 0 0.0 0.0 0.00 0.00 0.00 23 1009.8
20260502043107 25 0 0.0 0.0 0.00 0.00 0.00 22 1009.8
20260502041559 25 0 0.0 0.0 0.00 0.00 0.00 22 1009.6
20260502040047 26 0 0.0 0.0 0.00 0.00 0.00 21 1009.4
20260502034544 26 0 0.0 0.0 0.00 0.00 0.00 20 1009.3
20260502033043 26 0 0.0 0.0 0.00 0.00 0.00 21 1009.1
20260502031542 27 0 0.0 0.0 0.00 0.00 0.00 19 1008.9
20260502030050 27 0 0.0 0.0 0.00 0.00 0.00 20 1008.7
20260502024544 28 0 0.0 0.0 0.00 0.00 0.00 18 1008.6
20260502023043 28 0 0.0 3.2 0.00 0.00 0.00 17 1008.4
20260502021544 29 0 0.0 6.4 0.00 0.00 0.00 16 1008.2
20260502020043 30 0 1.6 9.7 0.00 0.00 0.00 16 1008.2
20260502014545 30 86 4.8 11.3 0.00 0.00 0.00 15 1008.0
20260502013051 30 115 4.8 12.9 0.00 0.00 0.00 15 1008.1
20260502011557 31 101 4.8 14.5 0.00 0.00 0.00 16 1008.0
20260502010052 31 98 1.6 19.3 0.00 0.00 0.00 16 1008.0
20260502004547 31 67 9.7 17.7 0.00 0.00 0.00 17 1008.0
20260502003043 31 0 6.4 22.5 0.00 0.00 0.00 17 1007.8
20260502001552 31 150 3.2 12.9 0.00 0.00 0.00 17 1007.8
20260502000051 31 0 6.4 14.5 0.00 0.00 0.00 18 1007.9
20260501234547 31 342 8.0 16.1 0.00 0.00 0.00 19 1008.1
20260501233058 31 117 6.4 19.3 0.00 0.00 0.00 18 1008.2
20260501231544 31 96 8.0 17.7 0.00 0.00 0.00 19 1008.2
20260501230050 31 0 4.8 19.3 0.00 0.00 0.00 19 1008.3
20260501224550 30 134 1.6 19.3 0.00 0.00 0.00 20 1008.5
20260501223044 31 166 11.3 27.4 0.00 0.00 0.00 20 1008.6
20260501221554 31 104 6.4 14.5 0.00 0.00 0.00 20 1008.7
20260501220046 30 142 4.8 14.5 0.00 0.00 0.00 19 1008.9
20260501214545 30 44 4.8 17.7 0.00 0.00 0.00 19 1009.0
20260501213047 31 0 0.0 14.5 0.00 0.00 0.00 17 1009.3
20260501211554 30 52 4.8 12.9 0.00 0.00 0.00 19 1009.7
20260501210043 30 98 6.4 12.9 0.00 0.00 0.00 19 1009.9
20260501204557 29 32 9.7 22.5 0.00 0.00 0.00 21 1010.0
20260501203043 29 35 4.8 16.1 0.00 0.00 0.00 20 1010.3
20260501201552 29 65 3.2 12.9 0.00 0.00 0.00 20 1010.3
20260501200047 29 101 3.2 11.3 0.00 0.00 0.00 22 1010.5
20260501194550 28 99 6.4 16.1 0.00 0.00 0.00 23 1010.8
20260501193045 28 0 1.6 6.4 0.00 0.00 0.00 24 1011.0
20260501191551 28 0 0.0 9.7 0.00 0.00 0.00 25 1011.1
20260501190048 27 97 6.4 11.3 0.00 0.00 0.00 25 1011.3
20260501184547 27 78 6.4 9.7 0.00 0.00 0.00 26 1011.6
20260501183051 27 95 1.6 12.9 0.00 0.00 0.00 26 1011.8
20260501181541 27 0 0.0 8.0 0.00 0.00 0.00 27 1012.0
20260501180046 26 0 1.6 11.3 0.00 0.00 0.00 29 1012.2
20260501174545 26 0 3.2 17.7 0.00 0.00 0.00 30 1012.3
20260501173050 25 0 4.8 12.9 0.00 0.00 0.00 31 1012.5
20260501171552 25 150 3.2 9.7 0.00 0.00 0.00 31 1012.5
20260501170045 25 210 1.6 9.7 0.00 0.00 0.00 32 1012.5
20260501164543 25 139 3.2 8.0 0.00 0.00 0.00 32 1012.4
20260501163102 24 56 4.8 11.3 0.00 0.00 0.00 33 1012.5
20260501161544 23 338 0.0 8.0 0.00 0.00 0.00 35 1012.3
20260501160051 23 58 3.2 9.7 0.00 0.00 0.00 36 1012.3
20260501154557 23 336 1.6 9.7 0.00 0.00 0.00 37 1012.3
20260501153053 22 0 4.8 11.3 0.00 0.00 0.00 38 1012.1
20260501151552 22 315 3.2 8.0 0.00 0.00 0.00 39 1011.9
20260501150044 21 247 6.4 9.7 0.00 0.00 0.00 40 1011.8
20260501144553 21 0 0.0 9.7 0.00 0.00 0.00 41 1011.7
20260501143101 21 0 3.2 8.0 0.00 0.00 0.00 43 1011.6
20260501141549 20 236 1.6 6.4 0.00 0.00 0.00 44 1011.5
20260501140044 20 246 1.6 4.8 0.00 0.00 0.00 45 1011.4
20260501134547 18 0 0.0 0.0 0.00 0.00 0.00 49 1011.2